HST 1 20580U 90037B 25123.94020127 .00008937 00000-0 34147-3 0 9991 2 20580 28.4691 344.7322 0002137 328.9073 31.1394 15.24819748725922 ISS (ZARYA) 1 25544U 98067A 25124.17583429 .00010980 00000-0 20479-3 0 9996 2 25544 51.6364 165.0572 0002347 78.0135 27.5001 15.49334428508330 CXO 1 25867U 99040B 25124.47797547 .00000650 00000-0 00000-0 0 9995 2 25867 48.5990 131.7302 8493358 308.8609 359.7335 0.37807267 15771